Location: Altamira
(10.5079°N, 66.8544°W)
Time: 04:17:05
(UTC+00:00)

X-37B - Pass Details

Date: 01 December 2022
Orbit: 277 x 277 km, 45.0° (Epoch: 01 November)

Event Time Altitude Azimuth Distance (km) Brightness Sun altitude
Exits shadow 09:02:18 26° 91° (E) 592 2.2 -21.0°
Drops below altitude 10° 09:03:42 10° 116° (ESE) 1,089 4.0 -20.6°
Sets 09:05:41 0° 125° (SE) 1,900 5.5 -20.2°
